Weather History for KGBG - September, 2011

Change the Weather History Date:

Friday, September 23, 2011

  Actual Average Record
Temperature  
Mean Temperature 50 °F -  
Max Temperature 64 °F 68 °F 91 °F (2007)
Min Temperature 37 °F 47 °F 33 °F (1983)
Degree Days  
Heating Degree Days 14    
Moisture  
Dew Point 39 °F    
Average Humidity 65    
Maximum Humidity 94    
Minimum Humidity 32    
Precipitation  
Precipitation 0.00 in - - ()
Sea Level Pressure  
Sea Level Pressure 30.09 in    
Wind  
Wind Speed 3 mph (NNW)    
Max Wind Speed 14 mph    
Max Gust Speed -    
Visibility 9 miles    
Events Fog    
Averages and records for this station are not official NWS values.
T = Trace of Precipitation, MM = Missing Value Source: NWS Daily Summary

Daily Weather History Graph

Daily Weather History Graph

Search for Another Location

Airport or City:

Trip Planner

Search our weather history database for the weather conditions in past years. The results will help you decide how hot, cold, wet, or windy it might be!

Date:

Astronomy

Sep. 23, 2011 Rise Set
Actual Time 6:49 AM CDT 6:57 PM CDT
Civil Twilight 6:22 AM CDT 7:24 PM CDT
Nautical Twilight 5:50 AM CDT 7:57 PM CDT
Astronomical Twilight 5:17 AM CDT 8:29 PM CDT
Moon 2:14 AM CDT (9/23) 4:30 PM CDT (9/23)
Length of Visible Light 13h 02m
Length of Day
12h 07m
Waning Crescent, 19% of the Moon is Illuminated
Sep 23
Waning Crescent
Sep 27
New
Oct 3
First Quarter
Oct 11
Full
Oct 19
Last Quarter

Hourly Weather History & Observations

Time (CDT) Temp. Windchill Dew Point Humidity Pressure Visibility Wind Dir Wind Speed Gust Speed Precip Events Conditions
12:15 AM 44.6 °F - 37.4 °F 76% 30.13 in 10.0 mi Calm Calm - N/A   Mostly Cloudy
12:35 AM 42.8 °F 41.1 °F 37.4 °F 81% 30.13 in 10.0 mi WNW 3.5 mph - N/A   Overcast
12:55 AM 42.8 °F 41.1 °F 37.4 °F 81% 30.13 in 10.0 mi WNW 3.5 mph - N/A   Scattered Clouds
1:15 AM 42.8 °F 40.1 °F 37.4 °F 81% 30.12 in 10.0 mi WNW 4.6 mph - N/A   Clear
1:35 AM 42.8 °F - 37.4 °F 81% 30.12 in 10.0 mi Calm Calm - N/A   Clear
1:55 AM 42.8 °F - 37.4 °F 81% 30.11 in 10.0 mi Calm Calm - N/A   Clear
2:15 AM 41.0 °F - 37.4 °F 87% 30.12 in 10.0 mi Calm Calm - N/A   Clear
2:35 AM 41.0 °F - 35.6 °F 81% 30.12 in 10.0 mi Calm Calm - N/A   Clear
2:55 AM 41.0 °F - 35.6 °F 81% 30.11 in 10.0 mi Calm Calm - N/A   Clear
3:15 AM 41.0 °F - 35.6 °F 81% 30.12 in 10.0 mi Calm Calm - N/A   Clear
3:35 AM 41.0 °F - 35.6 °F 81% 30.11 in 10.0 mi Calm Calm - N/A   Clear
3:55 AM 39.2 °F - 35.6 °F 87% 30.11 in 10.0 mi Calm Calm - N/A   Clear
4:15 AM 39.2 °F - 35.6 °F 87% 30.11 in 10.0 mi Calm Calm - N/A   Clear
4:35 AM 39.2 °F - 35.6 °F 87% 30.12 in 10.0 mi Calm Calm - N/A   Clear
4:55 AM 39.2 °F - 35.6 °F 87% 30.12 in 10.0 mi Calm Calm - N/A   Clear
5:15 AM 39.2 °F - 35.6 °F 87% 30.12 in 7.0 mi Calm Calm - N/A   Scattered Clouds
5:35 AM 39.2 °F - 35.6 °F 87% 30.13 in 0.5 mi Calm Calm - N/A Fog Fog
5:55 AM 37.4 °F - 35.6 °F 93% 30.13 in 0.5 mi Calm Calm - N/A Fog Fog
6:15 AM 37.4 °F - 35.6 °F 93% 30.13 in 1.2 mi Calm Calm - N/A   Overcast
6:35 AM 37.4 °F - 33.8 °F 87% 30.13 in 0.5 mi Calm Calm - N/A Fog Fog
6:55 AM 37.4 °F - 35.6 °F 93% 30.14 in 0.2 mi Calm Calm - N/A Fog Fog
7:15 AM 39.2 °F - 35.6 °F 87% 30.14 in 0.2 mi Calm Calm - N/A Fog Fog
7:35 AM 41.0 °F - 37.4 °F 87% 30.14 in 0.2 mi Calm Calm - N/A Fog Fog
7:55 AM 42.8 °F - 39.2 °F 87% 30.14 in 0.8 mi Calm Calm - N/A   Overcast
8:15 AM 44.6 °F - 42.8 °F 93% 30.14 in 4.0 mi Calm Calm - N/A   Mostly Cloudy
8:35 AM 50.0 °F - 46.4 °F 87% 30.14 in 10.0 mi NNW 6.9 mph - N/A   Scattered Clouds
8:55 AM 50.0 °F - 46.4 °F 87% 30.14 in 10.0 mi North 4.6 mph - N/A   Clear
9:15 AM 50.0 °F - 48.2 °F 94% 30.14 in 10.0 mi NNW 3.5 mph - N/A   Clear
9:35 AM 53.6 °F - 44.6 °F 72% 30.14 in 10.0 mi Calm Calm - N/A   Clear
9:55 AM 55.4 °F - 44.6 °F 67% 30.14 in 10.0 mi North 4.6 mph - N/A   Clear
10:15 AM 59.0 °F - 42.8 °F 55% 30.14 in 10.0 mi North 6.9 mph - N/A   Clear
10:35 AM 60.8 °F - 42.8 °F 52% 30.14 in 10.0 mi NNW 5.8 mph - N/A   Clear
10:55 AM 60.8 °F - 41.0 °F 48% 30.13 in 10.0 mi NNE 5.8 mph - N/A   Clear
11:15 AM 62.6 °F - 39.2 °F 42% 30.13 in 10.0 mi North 3.5 mph - N/A   Scattered Clouds
11:35 AM 62.6 °F - 37.4 °F 39% 30.12 in 10.0 mi NNW 5.8 mph - N/A   Scattered Clouds
11:55 AM 62.6 °F - 35.6 °F 37% 30.11 in 10.0 mi NW 5.8 mph - N/A   Mostly Cloudy
12:15 PM 62.6 °F - 33.8 °F 34% 30.11 in 10.0 mi Calm Calm - N/A   Overcast
12:35 PM 62.6 °F - 33.8 °F 34% 30.10 in 10.0 mi Calm Calm - N/A   Overcast
12:55 PM 62.6 °F - 35.6 °F 37% 30.09 in 10.0 mi NNW 6.9 mph - N/A   Overcast
1:15 PM 64.4 °F - 33.8 °F 32% 30.09 in 10.0 mi NW 5.8 mph - N/A   Overcast
1:35 PM 64.4 °F - 33.8 °F 32% 30.08 in 10.0 mi NNW 8.1 mph - N/A   Overcast
1:55 PM 64.4 °F - 33.8 °F 32% 30.07 in 10.0 mi NNW 8.1 mph - N/A   Overcast
2:15 PM 64.4 °F - 33.8 °F 32% 30.06 in 10.0 mi Calm Calm - N/A   Overcast
2:35 PM 62.6 °F - 33.8 °F 34% 30.06 in 10.0 mi NNW 8.1 mph - N/A   Overcast
2:55 PM 62.6 °F - 35.6 °F 37% 30.05 in 10.0 mi NW 8.1 mph - N/A   Overcast
3:15 PM 62.6 °F - 35.6 °F 37% 30.05 in 10.0 mi NNW 11.5 mph - N/A   Overcast
3:35 PM 62.6 °F - 37.4 °F 39% 30.05 in 10.0 mi NNW 13.8 mph - N/A   Overcast
3:55 PM 62.6 °F - 37.4 °F 39% 30.04 in 10.0 mi NW 8.1 mph - N/A   Overcast
4:15 PM 62.6 °F - 37.4 °F 39% 30.04 in 10.0 mi NW 6.9 mph - N/A   Overcast
4:35 PM 62.6 °F - 37.4 °F 39% 30.04 in 10.0 mi NNW 8.1 mph - N/A   Overcast
4:55 PM 62.6 °F - 39.2 °F 42% 30.04 in 10.0 mi NNW 8.1 mph - N/A   Overcast
5:15 PM 60.8 °F - 39.2 °F 45% 30.05 in 10.0 mi NNW 6.9 mph - N/A   Overcast
5:35 PM 60.8 °F - 39.2 °F 45% 30.04 in 10.0 mi NW 5.8 mph - N/A   Overcast
5:55 PM 60.8 °F - 39.2 °F 45% 30.04 in 10.0 mi NW 4.6 mph - N/A   Overcast
6:15 PM 60.8 °F - 39.2 °F 45% 30.04 in 10.0 mi NNW 3.5 mph - N/A   Overcast
6:35 PM 59.0 °F - 41.0 °F 51% 30.03 in 10.0 mi North 5.8 mph - N/A   Overcast
6:55 PM 59.0 °F - 41.0 °F 51% 30.03 in 10.0 mi North 5.8 mph - N/A   Overcast
7:15 PM 57.2 °F - 41.0 °F 55% 30.03 in 10.0 mi North 4.6 mph - N/A   Overcast
7:35 PM 55.4 °F - 42.8 °F 63% 30.03 in 10.0 mi NNW 4.6 mph - N/A   Overcast
7:55 PM 55.4 °F - 42.8 °F 63% 30.03 in 10.0 mi North 5.8 mph - N/A   Overcast
8:15 PM 53.6 °F - 42.8 °F 67% 30.04 in 10.0 mi North 9.2 mph - N/A   Overcast
8:35 PM 55.4 °F - 42.8 °F 63% 30.04 in 10.0 mi NNE 4.6 mph - N/A   Overcast
8:55 PM 53.6 °F - 42.8 °F 67% 30.04 in 10.0 mi North 5.8 mph - N/A   Overcast
9:15 PM 53.6 °F - 42.8 °F 67% 30.04 in 10.0 mi NNE 4.6 mph - N/A   Overcast
9:35 PM 53.6 °F - 42.8 °F 67% 30.04 in 10.0 mi North 5.8 mph - N/A   Overcast
9:55 PM 53.6 °F - 42.8 °F 67% 30.04 in 10.0 mi North 4.6 mph - N/A   Overcast
10:15 PM 53.6 °F - 44.6 °F 72% 30.04 in 10.0 mi Calm Calm - N/A   Overcast
10:35 PM 53.6 °F - 42.8 °F 67% 30.04 in 10.0 mi NNW 3.5 mph - N/A   Overcast
10:55 PM 51.8 °F - 42.8 °F 71% 30.04 in 10.0 mi NNW 4.6 mph - N/A   Overcast
11:15 PM 50.0 °F - 42.8 °F 76% 30.05 in 10.0 mi NNW 3.5 mph - N/A   Overcast
11:35 PM 50.0 °F - 42.8 °F 76% 30.05 in 10.0 mi North 4.6 mph - N/A   Overcast
11:55 PM 46.4 °F 44.3 °F 41.0 °F 81% 30.04 in 10.0 mi NNE 4.6 mph - N/A   Overcast